Time,TemperatureF,DewpointF,PressureIn,WindDirection,WindDirectionDegrees,WindSpeedMPH,WindSpeedGustMPH,Humidity,HourlyPrecipIn,Conditions,Clouds,dailyrainin,SoftwareType,DateUTC
2014-09-23 00:01:00,46.0,45.5,29.50,SSW,202,0.0,0.0,98,0.00,CLR,,0.00,WeatherDisplay:10.37,2014-09-23 04:01:00,
2014-09-23 00:06:00,45.9,45.3,29.50,SSW,202,0.0,0.0,98,0.00,CLR,,0.00,WeatherDisplay:10.37,2014-09-23 04:06:00,
2014-09-23 00:11:00,45.7,45.1,29.50,SSW,202,0.0,0.0,98,0.00,CLR,,0.00,WeatherDisplay:10.37,2014-09-23 04:11:00,
2014-09-23 00:16:00,45.5,45.0,29.50,SSW,202,0.0,0.0,98,0.00,CLR,,0.00,WeatherDisplay:10.37,2014-09-23 04:16:00,
2014-09-23 00:21:00,45.3,44.8,29.50,SSW,202,0.0,0.0,98,0.00,CLR,,0.00,WeatherDisplay:10.37,2014-09-23 04:21:00,
2014-09-23 00:26:00,45.3,44.8,29.50,SSW,202,0.0,0.0,98,0.00,CLR,,0.00,WeatherDisplay:10.37,2014-09-23 04:26:00,
2014-09-23 00:31:00,45.3,44.8,29.50,SSW,202,0.0,0.0,98,0.00,CLR,,0.00,WeatherDisplay:10.37,2014-09-23 04:31:00,
2014-09-23 00:36:00,45.3,44.8,29.50,SSW,202,0.0,0.0,98,0.00,CLR,,0.00,WeatherDisplay:10.37,2014-09-23 04:36:00,
2014-09-23 00:41:00,45.1,44.6,29.50,SSW,202,0.0,0.0,98,0.00,CLR,,0.00,WeatherDisplay:10.37,2014-09-23 04:41:00,
2014-09-23 00:46:00,45.1,44.6,29.50,SSW,202,0.0,0.0,98,0.00,CLR,,0.00,WeatherDisplay:10.37,2014-09-23 04:46:00,
2014-09-23 00:51:00,44.8,44.3,29.50,SSW,202,0.0,0.0,98,0.00,CLR,,0.00,WeatherDisplay:10.37,2014-09-23 04:51:00,
2014-09-23 00:56:00,44.8,44.3,29.50,SSW,202,0.0,0.0,98,0.00,CLR,,0.00,WeatherDisplay:10.37,2014-09-23 04:56:00,
2014-09-23 01:01:00,44.8,44.3,29.50,SSW,202,0.0,0.0,98,0.00,CLR,,0.00,WeatherDisplay:10.37,2014-09-23 05:01:00,
2014-09-23 01:06:00,44.8,44.3,29.50,SSW,202,0.0,0.0,98,0.00,CLR,,0.00,WeatherDisplay:10.37,2014-09-23 05:06:00,
2014-09-23 01:11:00,44.6,44.1,29.50,SSW,202,0.0,0.0,98,0.00,CLR,,0.00,WeatherDisplay:10.37,2014-09-23 05:11:00,
2014-09-23 01:17:00,44.6,44.1,29.50,SSW,202,0.0,0.0,98,0.00,CLR,,0.00,WeatherDisplay:10.37,2014-09-23 05:17:00,
2014-09-23 01:22:00,44.4,43.9,29.50,SSW,202,0.0,0.0,98,0.00,CLR,,0.00,WeatherDisplay:10.37,2014-09-23 05:22:00,
2014-09-23 01:27:00,44.4,43.9,29.50,SSW,202,0.0,0.0,98,0.00,CLR,,0.00,WeatherDisplay:10.37,2014-09-23 05:27:00,
2014-09-23 01:32:00,44.6,44.1,29.50,SW,225,0.0,0.0,98,0.00,CLR,,0.00,WeatherDisplay:10.37,2014-09-23 05:32:00,
2014-09-23 01:37:00,44.4,43.9,29.50,SW,225,0.0,0.0,98,0.00,CLR,,0.00,WeatherDisplay:10.37,2014-09-23 05:37:00,
2014-09-23 01:42:00,44.1,43.5,29.50,SW,225,0.0,0.0,98,0.00,CLR,,0.00,WeatherDisplay:10.37,2014-09-23 05:42:00,
2014-09-23 01:47:00,44.1,43.5,29.53,SW,225,0.0,0.0,98,0.00,CLR,,0.00,WeatherDisplay:10.37,2014-09-23 05:47:00,
2014-09-23 01:52:00,44.1,43.5,29.53,SW,225,0.0,0.0,98,0.00,CLR,,0.00,WeatherDisplay:10.37,2014-09-23 05:52:00,
2014-09-23 01:53:00,43.9,43.4,29.53,SW,225,0.0,0.0,98,0.00,CLR,,0.00,WeatherDisplay:10.37,2014-09-23 05:53:00,
2014-09-23 01:58:00,43.7,43.2,29.53,SW,225,0.0,0.0,98,0.00,CLR,,0.00,WeatherDisplay:10.37,2014-09-23 05:58:00,
2014-09-23 02:03:00,43.9,43.4,29.50,SW,225,0.0,0.0,98,0.00,CLR,,0.00,WeatherDisplay:10.37,2014-09-23 06:03:00,
2014-09-23 02:08:00,43.7,43.2,29.50,SW,225,0.0,0.0,98,0.00,CLR,,0.00,WeatherDisplay:10.37,2014-09-23 06:08:00,
2014-09-23 02:13:00,43.5,43.0,29.50,SW,225,0.0,0.0,98,0.00,CLR,,0.00,WeatherDisplay:10.37,2014-09-23 06:13:00,
2014-09-23 02:18:00,43.5,43.0,29.50,SW,225,0.0,0.0,98,0.00,CLR,,0.00,WeatherDisplay:10.37,2014-09-23 06:18:00,
2014-09-23 02:23:00,43.5,43.0,29.50,SW,225,0.0,0.0,98,0.00,CLR,,0.00,WeatherDisplay:10.37,2014-09-23 06:23:00,
2014-09-23 02:28:00,43.5,43.0,29.50,SW,225,0.0,0.0,98,0.00,CLR,,0.00,WeatherDisplay:10.37,2014-09-23 06:28:00,
2014-09-23 02:33:00,43.3,42.8,29.50,SW,225,0.0,0.0,98,0.00,CLR,,0.00,WeatherDisplay:10.37,2014-09-23 06:33:00,
2014-09-23 02:38:00,43.2,42.6,29.50,SW,225,0.0,0.0,98,0.00,CLR,,0.00,WeatherDisplay:10.37,2014-09-23 06:38:00,
2014-09-23 02:43:00,43.2,42.6,29.50,SW,225,0.0,0.0,98,0.00,CLR,,0.00,WeatherDisplay:10.37,2014-09-23 06:43:00,
2014-09-23 02:48:00,43.0,42.5,29.50,SW,225,0.0,0.0,98,0.00,CLR,,0.00,WeatherDisplay:10.37,2014-09-23 06:48:00,
2014-09-23 02:53:00,43.0,42.5,29.50,SW,225,0.0,0.0,98,0.00,CLR,,0.00,WeatherDisplay:10.37,2014-09-23 06:53:00,
2014-09-23 02:58:00,43.0,42.5,29.50,SW,225,0.0,0.0,98,0.00,CLR,,0.00,WeatherDisplay:10.37,2014-09-23 06:58:00,
2014-09-23 03:03:00,42.8,42.3,29.53,SW,225,0.0,0.0,98,0.00,CLR,,0.00,WeatherDisplay:10.37,2014-09-23 07:03:00,
2014-09-23 03:08:00,42.6,42.1,29.53,SW,225,0.0,0.0,98,0.00,CLR,,0.00,WeatherDisplay:10.37,2014-09-23 07:08:00,
2014-09-23 03:13:00,42.4,41.9,29.53,SW,225,0.0,0.0,98,0.00,CLR,,0.00,WeatherDisplay:10.37,2014-09-23 07:13:00,
2014-09-23 03:18:00,42.4,41.9,29.50,SW,225,0.0,0.0,98,0.00,CLR,,0.00,WeatherDisplay:10.37,2014-09-23 07:18:00,
2014-09-23 03:23:00,42.4,41.9,29.50,SW,225,0.0,0.0,98,0.00,CLR,,0.00,WeatherDisplay:10.37,2014-09-23 07:23:00,
2014-09-23 03:28:00,42.6,42.1,29.50,SW,225,0.0,0.0,98,0.00,CLR,,0.00,WeatherDisplay:10.37,2014-09-23 07:28:00,
2014-09-23 03:33:00,42.4,41.9,29.50,SW,225,0.0,0.0,98,0.00,CLR,,0.00,WeatherDisplay:10.37,2014-09-23 07:33:00,
2014-09-23 03:38:00,42.4,41.9,29.50,SW,225,0.0,0.0,98,0.00,CLR,,0.00,WeatherDisplay:10.37,2014-09-23 07:38:00,
2014-09-23 03:43:00,42.4,41.9,29.50,SW,225,0.0,0.0,98,0.00,CLR,,0.00,WeatherDisplay:10.37,2014-09-23 07:43:00,
2014-09-23 03:48:00,42.3,41.7,29.50,SW,225,0.0,0.0,98,0.00,CLR,,0.00,WeatherDisplay:10.37,2014-09-23 07:48:00,
2014-09-23 03:53:00,42.1,41.6,29.50,SW,225,0.0,0.0,98,0.00,CLR,,0.00,WeatherDisplay:10.37,2014-09-23 07:53:00,
2014-09-23 03:58:00,42.1,41.6,29.50,SW,225,0.0,0.0,98,0.00,CLR,,0.00,WeatherDisplay:10.37,2014-09-23 07:58:00,
2014-09-23 04:03:00,41.9,41.4,29.50,SW,225,0.0,0.0,98,0.00,CLR,,0.00,WeatherDisplay:10.37,2014-09-23 08:03:00,
2014-09-23 04:08:00,41.9,41.4,29.50,SW,225,0.0,0.0,98,0.00,CLR,,0.00,WeatherDisplay:10.37,2014-09-23 08:08:00,
2014-09-23 04:13:00,41.9,41.4,29.50,SW,225,0.0,0.0,98,0.00,CLR,,0.00,WeatherDisplay:10.37,2014-09-23 08:13:00,
2014-09-23 04:18:00,41.9,41.4,29.50,SW,225,0.0,0.0,98,0.00,CLR,,0.00,WeatherDisplay:10.37,2014-09-23 08:18:00,
2014-09-23 04:23:00,41.7,41.2,29.50,SW,225,0.0,0.0,98,0.00,CLR,,0.00,WeatherDisplay:10.37,2014-09-23 08:23:00,
2014-09-23 04:28:00,41.7,41.2,29.50,SW,225,0.0,0.0,98,0.00,CLR,,0.00,WeatherDisplay:10.37,2014-09-23 08:28:00,
2014-09-23 04:33:00,41.7,41.2,29.50,SW,225,0.0,0.0,98,0.00,CLR,,0.00,WeatherDisplay:10.37,2014-09-23 08:33:00,
2014-09-23 04:38:00,41.9,41.4,29.50,SW,225,0.0,0.0,98,0.00,CLR,,0.00,WeatherDisplay:10.37,2014-09-23 08:38:00,
2014-09-23 04:43:00,41.7,41.2,29.50,SW,225,0.0,0.0,98,0.00,CLR,,0.00,WeatherDisplay:10.37,2014-09-23 08:43:00,
2014-09-23 04:48:00,41.7,41.2,29.53,SW,225,0.0,0.0,98,0.00,CLR,,0.00,WeatherDisplay:10.37,2014-09-23 08:48:00,
2014-09-23 04:53:00,41.5,41.0,29.53,SW,225,0.0,0.0,98,0.00,CLR,,0.00,WeatherDisplay:10.37,2014-09-23 08:53:00,
2014-09-23 04:58:00,41.4,40.8,29.53,SW,225,0.0,0.0,98,0.00,CLR,,0.00,WeatherDisplay:10.37,2014-09-23 08:58:00,
2014-09-23 05:03:00,41.5,41.0,29.53,SW,225,0.0,0.0,98,0.00,CLR,,0.00,WeatherDisplay:10.37,2014-09-23 09:03:00,
2014-09-23 05:08:00,41.5,41.0,29.53,SW,225,0.0,0.0,98,0.00,CLR,,0.00,WeatherDisplay:10.37,2014-09-23 09:08:00,
2014-09-23 05:13:00,41.4,40.8,29.53,SW,225,0.0,0.0,98,0.00,CLR,,0.00,WeatherDisplay:10.37,2014-09-23 09:13:00,
2014-09-23 05:18:00,41.4,40.8,29.53,SW,225,0.0,0.0,98,0.00,CLR,,0.00,WeatherDisplay:10.37,2014-09-23 09:18:00,
2014-09-23 05:20:00,41.4,40.8,29.53,SW,225,0.0,0.0,98,0.00,CLR,,0.00,WeatherDisplay:10.37,2014-09-23 09:20:00,
2014-09-23 05:25:00,41.5,41.0,29.53,SW,225,0.0,0.0,98,0.00,CLR,,0.00,WeatherDisplay:10.37,2014-09-23 09:25:00,
2014-09-23 05:30:00,41.5,41.0,29.53,SW,225,0.0,0.0,98,0.00,CLR,,0.00,WeatherDisplay:10.37,2014-09-23 09:30:00,
2014-09-23 05:35:00,41.7,41.2,29.53,SW,225,0.0,0.0,98,0.00,CLR,,0.00,WeatherDisplay:10.37,2014-09-23 09:35:00,
2014-09-23 05:40:00,41.5,41.0,29.53,SW,225,0.0,0.0,98,0.00,CLR,,0.00,WeatherDisplay:10.37,2014-09-23 09:40:00,
2014-09-23 05:45:00,41.9,41.4,29.53,SW,225,0.0,0.0,98,0.00,CLR,,0.00,WeatherDisplay:10.37,2014-09-23 09:45:00,
2014-09-23 05:50:00,41.7,41.2,29.50,SW,225,0.0,0.0,98,0.00,CLR,,0.00,WeatherDisplay:10.37,2014-09-23 09:50:00,
2014-09-23 05:55:00,41.5,41.0,29.50,SW,225,0.0,0.0,98,0.00,CLR,,0.00,WeatherDisplay:10.37,2014-09-23 09:55:00,
2014-09-23 06:00:00,41.4,40.8,29.50,SW,225,0.0,0.0,98,0.00,CLR,,0.00,WeatherDisplay:10.37,2014-09-23 10:00:00,
2014-09-23 06:05:00,41.4,40.8,29.53,SW,225,0.0,0.0,98,0.00,CLR,,0.00,WeatherDisplay:10.37,2014-09-23 10:05:00,
2014-09-23 06:10:00,41.2,40.7,29.53,SW,225,0.0,0.0,98,0.00,CLR,,0.00,WeatherDisplay:10.37,2014-09-23 10:10:00,
2014-09-23 06:15:00,41.0,40.5,29.53,SW,225,0.0,0.0,98,0.00,CLR,,0.00,WeatherDisplay:10.37,2014-09-23 10:15:00,
2014-09-23 06:20:00,41.0,40.5,29.56,SW,225,0.0,0.0,98,0.00,CLR,,0.00,WeatherDisplay:10.37,2014-09-23 10:20:00,
2014-09-23 06:25:00,41.0,40.5,29.56,SW,225,0.0,0.0,98,0.00,CLR,,0.00,WeatherDisplay:10.37,2014-09-23 10:25:00,
2014-09-23 06:30:00,41.5,41.0,29.56,SW,225,0.0,0.0,98,0.00,CLR,,0.00,WeatherDisplay:10.37,2014-09-23 10:30:00,
2014-09-23 06:35:00,41.5,41.0,29.56,SW,225,0.0,0.0,98,0.00,CLR,,0.00,WeatherDisplay:10.37,2014-09-23 10:35:00,
2014-09-23 06:40:00,41.5,41.0,29.56,SW,225,0.0,0.0,98,0.00,CLR,,0.00,WeatherDisplay:10.37,2014-09-23 10:40:00,
2014-09-23 06:45:00,41.2,40.7,29.56,SW,225,0.0,0.0,98,0.00,CLR,,0.00,WeatherDisplay:10.37,2014-09-23 10:45:00,
2014-09-23 06:50:00,41.0,40.5,29.56,SW,225,0.0,0.0,98,0.00,CLR,,0.00,WeatherDisplay:10.37,2014-09-23 10:50:00,
2014-09-23 06:55:00,41.0,40.5,29.56,SW,225,0.0,0.0,98,0.00,CLR,,0.00,WeatherDisplay:10.37,2014-09-23 10:55:00,
2014-09-23 07:00:00,40.8,40.3,29.56,SW,225,0.0,0.0,98,0.00,CLR,,0.00,WeatherDisplay:10.37,2014-09-23 11:00:00,
2014-09-23 07:05:00,40.8,40.3,29.56,SW,225,0.0,0.0,98,0.00,CLR,,0.00,WeatherDisplay:10.37,2014-09-23 11:05:00,
2014-09-23 07:10:00,40.6,40.1,29.56,SW,225,0.0,0.0,98,0.00,CLR,,0.00,WeatherDisplay:10.37,2014-09-23 11:10:00,
2014-09-23 07:15:00,40.8,40.3,29.56,SW,225,0.0,0.0,98,0.00,CLR,,0.00,WeatherDisplay:10.37,2014-09-23 11:15:00,
2014-09-23 07:20:00,40.6,40.1,29.56,SW,225,0.0,0.0,98,0.00,CLR,,0.00,WeatherDisplay:10.37,2014-09-23 11:20:00,
2014-09-23 07:25:00,40.8,40.3,29.56,SW,225,0.0,0.0,98,0.00,CLR,,0.00,WeatherDisplay:10.37,2014-09-23 11:25:00,
2014-09-23 07:30:00,40.6,40.1,29.56,SW,225,0.0,0.0,98,0.00,CLR,,0.00,WeatherDisplay:10.37,2014-09-23 11:30:00,
2014-09-23 07:35:00,40.6,40.1,29.56,SW,225,0.0,0.0,98,0.00,CLR,,0.00,WeatherDisplay:10.37,2014-09-23 11:35:00,
2014-09-23 07:40:00,40.6,40.1,29.56,SW,225,0.0,0.0,98,0.00,CLR,,0.00,WeatherDisplay:10.37,2014-09-23 11:40:00,
2014-09-23 07:45:00,41.0,40.5,29.56,SW,225,0.0,0.0,98,0.00,CLR,,0.00,WeatherDisplay:10.37,2014-09-23 11:45:00,
2014-09-23 07:50:00,41.0,40.5,29.56,SW,225,0.0,0.0,98,0.00,CLR,,0.00,WeatherDisplay:10.37,2014-09-23 11:50:00,
2014-09-23 07:55:00,41.2,40.7,29.56,SW,225,0.0,0.0,98,0.00,CLR,,0.00,WeatherDisplay:10.37,2014-09-23 11:55:00,
2014-09-23 08:00:00,41.5,41.0,29.53,SW,225,0.0,0.0,98,0.00,CLR,,0.00,WeatherDisplay:10.37,2014-09-23 12:00:00,
2014-09-23 08:05:00,42.4,41.9,29.53,SW,225,0.0,0.0,98,0.00,CLR,,0.00,WeatherDisplay:10.37,2014-09-23 12:05:00,
2014-09-23 08:10:00,42.4,41.9,29.53,SW,225,0.0,0.0,98,0.00,CLR,,0.00,WeatherDisplay:10.37,2014-09-23 12:10:00,
2014-09-23 08:13:00,42.4,41.9,29.53,SW,225,0.0,0.0,98,0.00,CLR,,0.00,WeatherDisplay:10.37,2014-09-23 12:13:00,
2014-09-23 08:18:00,43.2,42.6,29.56,SW,225,0.0,0.0,98,0.00,CLR,,0.00,WeatherDisplay:10.37,2014-09-23 12:18:00,
2014-09-23 08:23:00,43.5,43.0,29.56,SW,225,0.0,0.0,98,0.00,CLR,,0.00,WeatherDisplay:10.37,2014-09-23 12:23:00,
2014-09-23 08:28:00,43.7,43.2,29.56,SW,225,0.0,0.0,98,0.00,CLR,,0.00,WeatherDisplay:10.37,2014-09-23 12:28:00,
2014-09-23 08:33:00,44.4,43.9,29.53,SW,225,0.0,0.0,98,0.00,CLR,,0.00,WeatherDisplay:10.37,2014-09-23 12:33:00,
2014-09-23 08:38:00,45.0,44.4,29.53,SW,225,2.3,2.3,98,0.00,CLR,,0.00,WeatherDisplay:10.37,2014-09-23 12:38:00,
2014-09-23 08:43:00,45.1,44.6,29.53,SW,225,0.0,0.0,98,0.00,CLR,,0.00,WeatherDisplay:10.37,2014-09-23 12:43:00,
2014-09-23 08:48:00,45.5,45.0,29.56,SW,225,0.0,0.0,98,0.00,CLR,,0.00,WeatherDisplay:10.37,2014-09-23 12:48:00,
2014-09-23 08:53:00,46.0,45.5,29.56,SW,225,0.0,0.0,98,0.00,CLR,,0.00,WeatherDisplay:10.37,2014-09-23 12:53:00,
2014-09-23 08:58:00,46.2,45.7,29.56,SW,225,0.0,0.0,98,0.00,CLR,,0.00,WeatherDisplay:10.37,2014-09-23 12:58:00,
2014-09-23 09:03:00,47.1,46.6,29.56,SW,225,0.0,0.0,98,0.00,CLR,,0.00,WeatherDisplay:10.37,2014-09-23 13:03:00,
2014-09-23 09:08:00,47.5,46.9,29.56,SW,225,2.0,0.0,98,0.00,CLR,,0.00,WeatherDisplay:10.37,2014-09-23 13:08:00,